www.pogodaiklimat.ru

Погода и климат >> Архив погоды >> Словакия >> Братислава


АРХИВ ПОГОДЫ в Братиславе

Время (UTC), дата Ветер
(напр.,м/с)
 
Видим.   Явления Облачность Т
(С)
Тd
(С)
f
(%)
Тe
(С)
Тes
(С)
Комфортность P
(гПа)
Po
(гПа)
Тmin
(С)
Tmax
(С)
R
(мм)
R24
(мм)
S
(см)
10 14.05 С 10 25 км в посл. час ливневой дождь 9/8 800 м
[Cu Sc Ac As]
+8.1 +1.9 65 +3 +3 очень
холодно
1024.4 1007.9
11 14.05 С 9 25 км 9/8 960 м
[Cu Sc Ac As]
+8.0 +2.2 67 +3 +3 очень
холодно
1023.8 1007.3
12 14.05 С 9 25 км в посл. час дождь {ливн. осадки} 9/8 800 м
[Cu Sc Ac As]
+8.2 +2.6 68 +4 +4 очень
холодно
1023.4 1007.0 0.0
13 14.05 С 10 25 км 10/9 800 м
[Cu Sc Ac As]
+7.9 +2.6 69 +3 +3 очень
холодно
1022.9 1006.4
14 14.05 С 9 25 км в посл. час дождь 9/8 840 м
[Cu Sc Ac As]
+8.1 +2.8 69 +3 +3 очень
холодно
1022.1 1005.7
15 14.05 СЗ 8 20 км слаб. дождь 10/9 800 м
[Cu Sc Ac As]
+7.7 +3.4 74 +3 +3 очень
холодно
1021.6 1005.1
16 14.05 С 7 20 км слаб. дождь 10/9 450 м
[Cu Sc Ac As]
+7.4 +3.8 78 +3 +3 очень
холодно
1021.1 1004.6
17 14.05 СЗ 5 12 км слаб. дождь 10/9 400 м
[Sc As op]
+7.1 +4.4 83 +3 +3 очень
холодно
1020.7 1004.2
18 14.05 С 6 20 км слаб. дождь 10/9 360 м
[Sc As op]
+7.1 +4.4 83 +3 +3 очень
холодно
1020.5 1004.0 +1.0 0.9
19 14.05 С 6 20 км слаб. дождь 10/9 360 м
[Sc As op]
+7.3 +4.6 83 +3 +3 очень
холодно
1020.2 1003.8
20 14.05 С 6 20 км слаб. дождь 10/5 360 м
[Sc As op]
+7.2 +4.8 85 +3 +3 очень
холодно
1020.0 1003.6
21 14.05 С 5 20 км слаб. дождь 10/5 330 м
[Sc As op]
+7.3 +4.8 84 +3 +3 очень
холодно
1019.7 1003.3
22 14.05 СЗ 4 20 км слаб. дождь 10/9 330 м
[Sc As op]
+7.3 +5.0 85 +4 +4 прохладно 1019.2 1002.8
23 14.05 С 4 25 км слаб. дождь 9/8 360 м
[Sc As op]
+7.2 +5.2 87 +4 +4 холодно 1018.6 1002.2
00 15.05 СЗ 5 30 км в посл. час дождь 9/9 300 м
[Sc]
+7.8 +4.9 82 +4 +4 холодно 1018.3 1001.9 2
01 15.05 СЗ 3 30 км 9/9 300 м
[Sc]
+7.7 +5.3 85 +5 +5 прохладно 1017.9 1001.5
02 15.05 СЗ 4 30 км 9/9 300 м
[Sc]
+7.5 +5.1 85 +4 +4 холодно 1017.4 1001.0
03 15.05 СЗ 4 25 км 9/9 300 м
[Sc]
+7.3 +5.0 85 +4 +4 очень
холодно
1017.1 1000.7
04 15.05 СЗ 5 25 км 9/4 300 м
[Sc Ac As Ci fib]
+7.3 +4.8 84 +3 +3 очень
холодно
1016.8 1000.4
05 15.05 СЗ 6 30 км 9/4 300 м
[Sc Ac As Ci fib]
+7.4 +4.9 84 +3 +3 очень
холодно
1016.5 1000.1
06 15.05 СЗ 6 30 км 9/5 400 м
[Sc Ac As]
+8.1 +5.2 82 +4 +4 очень
холодно
1016.3 1000.0 +7.0 2
07 15.05 СЗ 5 30 км слаб. дождь 9/9 420 м
[Cu Sc]
+8.5 +5.2 80 +5 +5 очень
холодно
1016.3 1000.0
08 15.05 СЗ 6 40 км слаб. дождь 9/9 450 м
[Cu Sc]
+8.8 +5.4 79 +5 +5 очень
холодно
1016.5 1000.2
09 15.05 СЗ 7 30 км слаб. дождь 9/9 480 м
[Cu Sc]
+8.7 +5.4 80 +5 +5 очень
холодно
1016.2 999.9
10 15.05 СЗ 7 30 км слаб. дождь 9/8 450 м
[Cu Sc Ac As]
+9.2 +5.6 78 +5 +6 очень
холодно
1015.6 999.3
11 15.05 СЗ 7 35 км в посл. час дождь 10/9 540 м
[Cu Sc]
+9.6 +5.8 77 +6 +6 очень
холодно
1015.3 999.1
12 15.05 СЗ 8 40 км слаб. дождь 10/9 540 м
[Cu Sc]
+9.7 +6.0 78 +6 +6 очень
холодно
1015.2 999.0 0.0
13 15.05 СЗ 8 30 км слаб. дождь 10/9 500 м
[Cu Sc]
+9.6 +5.8 77 +6 +6 очень
холодно
1015.2 999.0
14 15.05 СЗ 5 14 км слаб. дождь 10/9 300 м
[Cu Sc As op]
+8.5 +6.6 88 +5 +5 очень
холодно
1015.4 999.1
15 15.05 СЗ 5 4500 м слаб. дождь 10/9 270 м
[Sc As op]
+8.3 +6.8 90 +5 +5 очень
холодно
1015.6 999.3
16 15.05 СЗ 5 7000 м слаб. дождь 10/5 180 м
[Sc As op]
+8.4 +6.8 90 +5 +5 очень
холодно
1015.3 999.0
17 15.05 СЗ 5 9000 м дождь 10/9 210 м
[Sc As op]
+8.5 +6.8 89 +5 +5 очень
холодно
1015.3 999.0
18 15.05 СЗ 5 12 км слаб. дождь 10/10 210 м
[Sc]
+8.5 +6.6 88 +5 +5 очень
холодно
1015.3 999.0 +9.9 8
19 15.05 СЗ 5 15 км слаб. дождь 10/9 270 м
[Sc]
+8.2 +6.8 91 +4 +4 очень
холодно
1015.6 999.3
20 15.05 З 6 15 км слаб. дождь 10/9 330 м
[Sc]
+8.1 +6.9 92 +4 +4 очень
холодно
1015.6 999.3
21 15.05 СЗ 6 15 км в посл. час дождь 10/10 330 м
[Sc]
+8.1 +6.6 90 +4 +4 очень
холодно
1015.6 999.3
22 15.05 СЗ 5 20 км слаб. дождь 10/10 300 м
[Sc]
+7.9 +6.4 90 +4 +4 прохладно 1015.4 999.1
23 15.05 З 6 12 км слаб. дождь 10/10 240 м
[Sc]
+7.6 +6.4 92 +3 +3 холодно 1015.2 998.9
00 16.05 З 6 10 км слаб. дождь 10/10 240 м
[Sc]
+7.5 +6.3 92 +3 +3 очень
холодно
1015.2 998.8 1
01 16.05 З 6 10 км слаб. дождь 10/10 210 м
[Sc]
+7.4 +6.3 93 +3 +3 холодно 1014.6 998.3
02 16.05 З 5 15 км в посл. час дождь 10/10 300 м
[Sc]
+7.1 +5.7 91 +3 +3 очень
холодно
1014.6 998.2
03 16.05 СЗ 5 30 км {дождь} 10/10 570 м
[Sc]
+7.2 +5.8 91 +3 +3 очень
холодно
1014.4 998.0
04 16.05 З 4 40 км 10/10 300 м
[Sc]
+7.5 +6.0 90 +4 +4 очень
холодно
1014.3 998.0
05 16.05 СЗ 3 20 км слаб. дождь 10/10 300 м
[Sc]
+7.7 +6.5 92 +5 +5 очень
холодно
1014.8 998.5
06 16.05 З 4 20 км в посл. час дождь 10/10 300 м
[Sc]
+7.7 +6.2 90 +4 +4 очень
холодно
1015.1 998.8 +7.1 2
07 16.05 СЗ 5 15 км в посл. час дождь 9/9 270 м
[Frnb]
+8.2 +6.8 91 +4 +5 очень
холодно
1015.2 998.9
08 16.05 З 4 15 км слаб. морось 10/10 240 м
[Frnb]
+8.6 +6.9 89 +5 +5 очень
холодно
1015.2 998.9
09 16.05 СЗ 3 12 км слаб. морось {дождь} 10/10 210 м
[Frnb]
+8.3 +7.1 92 +6 +6 очень
холодно
1015.3 999.0
10 16.05 З 2 20 км в посл. час морось 9/9 240 м
[Sc]
+9.4 +7.8 90 +8 +9 очень
холодно
1015.2 999.0
11 16.05 20 км 9/9 270 м
[Sc]
+10.9 +8.0 82 1014.7 998.6
12 16.05 нст 1 25 км {дождь, морось} 9/9 300 м
[Sc]
+11.0 +7.9 81 +11 +13 очень
холодно
1014.6 998.5 0.1
13 16.05 25 км 9/9 360 м
[Cu Sc Ci fib]
+12.5 +8.4 76 1014.2 998.2
14 16.05 Ю 2 25 км 9/9 570 м
[Cu Sc]
+12.7 +8.2 74 +12 +13 холодно 1014.0 998.0
15 16.05 нст 1 25 км 9/9 540 м
[Cu Sc Ci fib]
+12.3 +8.0 75 +12 +13 холодно 1014.0 997.9
16 16.05 25 км 9/9 570 м
[Cu Sc Ci fib]
+12.5 +8.4 76 1013.9 997.9
17 16.05 Ю 1 25 км 9/9 720 м
[Cu Sc]
+12.1 +8.4 78 +12 +12 холодно 1013.8 997.7
18 16.05 ЮВ 1 25 км 9/9 720 м
[Cu Sc]
+11.7 +8.6 81 +12 +12 холодно 1014.1 998.0 +13.3 0.1
19 16.05 ЮЗ 2 20 км 9/9 1050 м
[Sc]
+11.4 +8.3 81 +10 +10 прохладно 1014.1 998.0
20 16.05 Ю 1 20 км 9/9 1260 м
[Sc]
+10.8 +8.7 87 +10 +10 прохладно 1014.2 998.1
21 16.05 ЮЗ 1 18 км 9/9 1050 м
[Sc]
+10.5 +8.3 86 +10 +10 прохладно 1014.2 998.1
22 16.05 С 2 12 км 9/9 1200 м
[Sc]
+9.1 +7.7 91 +7 +7 по сезону 1014.1 997.9
23 16.05 штиль 0 1800 м туман на расстоянии 6/6 240 м
[Sc]
+8.3 +7.4 94 +7 +7 прохладно 1014.0 997.7
00 17.05 штиль 0 400 м туман 4/3 60 м
[Sc Ci fib]
+6.1 +5.4 95 +5 +5 холодно 1013.9 997.5
01 17.05 С 1 200 м туман 4/4 30 м
[St Ci fib]
+6.1 +5.7 97 +5 +5 холодно 1013.4 997.0
02 17.05 СВ 1 200 м туман 8/8 30 м
[St]
+4.6 +4.2 97 +3 +3 очень
холодно
1013.3 996.8
03 17.05 С 1 200 м туман 9/9 30 м
[St]
+4.4 +4.1 98 +3 +3 очень
холодно
1013.1 996.6
04 17.05 СВ 1 200 м туман 9/9 30 м
[St]
+4.8 +4.5 98 +3 +3 очень
холодно
1013.5 997.0
05 17.05 200 м туман 9/9 30 м
[St]
+6.6 +6.3 98 1013.6 997.2
06 17.05 нст 1 300 м туман 9/9 30 м
[St]
+7.5 +7.2 98 +6 +7 очень
холодно
1013.7 997.4 +3.9
07 17.05 10 км в посл. час туман 5/4 150 м
[St Ci fib]
+10.0 +9.5 97 1013.8 997.6
08 17.05 ЮВ 3 20 км 9/9 450 м
[Cu Sc Ac lent]
+11.4 +7.9 79 +10 +11 холодно 1013.7 997.6
09 17.05 ЮВ 3 20 км {туман} 9/9 660 м
[Cu Sc Ac lent]
+12.5 +7.2 70 +11 +12 холодно 1013.2 997.2
10 17.05 ЮВ 4 20 км 9/9 720 м
[Cu Sc Ac lent]
+13.2 +7.6 69 +12 +13 очень
холодно
1013.3 997.3
11 17.05 ЮВ 4 20 км 9/9 720 м
[Cu Sc]
+13.1 +7.8 70 +11 +13 очень
холодно
1013.3 997.3
12 17.05 Ю 5 30 км {туман} 9/9 750 м
[Sc]
+13.6 +7.8 68 +12 +13 очень
холодно
1013.1 997.1
13 17.05 Ю 5 40 км 8/8 800 м
[Sc Ci fib]
+14.1 +8.7 70 +12 +14 очень
холодно
1012.8 996.9
14 17.05 Ю 5 40 км 8/6 720 м
[Cu Sc Ci sp]
+14.5 +8.2 66 +13 +15 холодно 1012.5 996.6
15 17.05 Ю 5 40 км 9/9 960 м
[Cu Sc]
+14.4 +8.6 68 +13 +13 холодно 1012.4 996.5
16 17.05 Ю 5 40 км 9/8 930 м
[Cu Sc Ac lent]
+14.0 +8.4 69 +12 +13 холодно 1012.2 996.3
17 17.05 ЮВ 4 40 км 9/9 900 м
[Sc]
+13.8 +8.4 70 +12 +12 холодно 1012.0 996.1
18 17.05 ЮВ 3 40 км 9/9 840 м
[Sc]
+13.2 +8.7 74 +12 +12 холодно 1011.9 995.9 +15.0
19 17.05 ЮВ 2 30 км 9/9 840 м
[Sc]
+12.4 +8.9 79 +12 +12 по сезону 1012.4 996.4
20 17.05 ЮВ 3 30 км 6/5 870 м
[Sc Ac lent]
+10.6 +8.2 85 +9 +9 прохладно 1012.7 996.6
21 17.05 ЮВ 2 30 км 4/4 870 м
[Sc Ci fib]
+9.3 +7.2 87 +8 +8 холодно 1012.8 996.6
22 17.05 В 2 30 км 4/4 930 м
[Sc Ci fib]
+8.1 +6.4 89 +6 +6 прохладно 1013.0 996.7
23 17.05 30 км {морось} ясно +7.5 +6.3 92 1012.7 996.4
00 18.05 С 2 20 км ясно +7.2 +6.1 93 +5 +5 холодно 1012.6 996.3
01 18.05 С 2 15 км местами туман поземный 1/0
[Ac lent]
+6.8 +6.0 95 +4 +4 холодно 1012.3 996.0
02 18.05 С 2 15 км 6/6 960 м
[Sc]
+7.1 +6.4 95 +5 +5 холодно 1012.1 995.8
03 18.05 нст 2 4500 м местами туман поземный 9/9 240 м
[Sc]
+6.9 +6.2 95 +5 +5 очень
холодно
1011.8 995.5
04 18.05 С 2 5000 м местами туман поземный 8/6 240 м
[Sc Ac lent]
+7.9 +7.3 96 +6 +6 холодно 1011.7 995.4
05 18.05 6000 м дымка 8/8 300 м
[Sc]
+8.9 +8.3 96 1011.6 995.4
06 18.05 В 2 9000 м дымка 1/1 300 м
[St Ci fib]
+12.2 +9.9 86 +11 +15 прохладно 1011.2 995.2 +6.2
07 18.05 ЮВ 4 12 км 1/1 450 м
[Cu hum]
+15.0 +11.0 77 +14 +19 прохладно 1011.3 995.5
08 18.05 ЮВ 4 15 км 6/6 720 м
[Cu med, cong]
+16.4 +11.1 71 +16 +19 по сезону 1011.4 995.6
09 18.05 ЮВ 5 20 км 6/5 900 м
[Cu med, cong Ci fib]
+16.6 +9.5 63 +16 +19 по сезону 1011.1 995.3
10 18.05 ЮВ 4 25 км 8/8 1000 м
[Cu med, cong]
+17.6 +9.8 60 +17 +20 холодно 1011.2 995.5
11 18.05 Ю 4 25 км 8/8 1170 м
[Cu med, cong]
+17.5 +9.9 61 +17 +20 прохладно 1010.9 995.2
12 18.05 Ю 3 30 км 8/6 1170 м
[Sc diur, vesp Ci fib]
+19.4 +11.5 60 +21 +26 комфорт 1010.2 994.6
13 18.05 ЮВ 3 30 км 8/3 1170 м
[Cu hum Ci fib]
+19.8 +10.8 56 +21 +28 комфорт 1009.3 993.7
14 18.05 ЮВ 3 30 км 8/4 1230 м
[Cu med, cong Cs]
+19.3 +10.3 56 +21 +25 комфорт 1009.0 993.4
15 18.05 ЮВ 3 30 км 8/3 1230 м
[Cu med, cong Ac lent Cs]
+20.2 +10.3 53 +22 +24 комфорт 1008.3 992.8
16 18.05 ЮВ 3 30 км 6/1 1260 м
[Cu med, cong Ac lent Ci fib]
+20.5 +10.9 54 +23 +24 комфорт 1007.9 992.4
17 18.05 ЮВ 2 30 км 3/1 1260 м
[Cu hum Ac lent Ci fib]
+19.8 +10.8 56 +22 +23 комфорт 1007.7 992.2
18 18.05 В 2 30 км 3/0
[Ac lent Ci fib]
+18.2 +11.8 66 +19 +19 тепло 1007.8 992.2 +20.6
19 18.05 В 2 30 км 1/0
[Ci fib]
+15.4 +11.0 75 +15 +15 тепло 1008.5 992.7
20 18.05 С 1 30 км 1/0
[Ci fib]
+14.0 +10.8 81 +14 +14 по сезону 1008.6 992.7
21 18.05 С 1 30 км местами туман поземный 1/0
[Ci fib]
+12.7 +9.9 83 +13 +13 по сезону 1008.2 992.3
22 18.05 С 1 30 км местами туман поземный 1/0
[Ac lent Ci fib]
+10.9 +9.5 91 +11 +11 тепло 1008.0 992.0
23 18.05 штиль 0 30 км местами туман поземный 1/0
[Ac lent Ci fib]
+10.6 +9.4 92 +10 +10 по сезону 1007.7 991.7
00 19.05 С 2 20 км местами туман поземный 1/0
[Ac lent Ci fib]
+9.9 +8.5 91 +8 +8 прохладно 1007.8 991.7
01 19.05 С 3 15 км 3/0
[Ac lent Ci fib]
+9.7 +8.5 92 +7 +7 прохладно 1007.6 991.5
02 19.05 С 2 15 км местами туман поземный 3/0
[Ac lent Ci fib]
+9.8 +8.6 92 +8 +8 прохладно 1007.4 991.3
03 19.05 штиль 0 30 км местами туман поземный 6/0
[Ac lent Ci fib]
+9.3 +8.1 92 +8 +8 прохладно 1007.3 991.2
04 19.05 С 2 30 км местами туман поземный 9/0
[Ac lent Ci fib]
+9.5 +8.3 92 +8 +8 прохладно 1007.2 991.1
05 19.05 СВ 3 30 км 9/0
[Ac lent Ci sp]
+12.1 +10.3 89 +10 +11 прохладно 1007.1 991.2
06 19.05 С 3 30 км 9/0
[Ac lent Ci sp]
+14.6 +11.2 80 +14 +15 по сезону 1006.7 990.9 +8.9
07 19.05 30 км 8/0
[Ac lent Ci fib]
+15.7 +11.3 75 1006.7 991.0
08 19.05 В 2 30 км 9/3 1500 м
[Sc Ac cast Ci sp]
+17.8 +12.5 71 +18 +23 по сезону 1006.4 990.8
09 19.05 ЮВ 3 25 км 8/1 570 м
[Cu hum Ac lent Ci fib]
+18.8 +13.9 73 +20 +27 тепло 1006.4 990.8
10 19.05 ЮВ 3 25 км 9/3 660 м
[Cu Sc Ac lent]
+19.3 +13.5 69 +21 +24 комфорт 1006.1 990.6
11 19.05 В 4 25 км 9/5 660 м
[Cu Sc Ac lent]
+19.4 +14.4 73 +21 +23 комфорт 1005.7 990.2
12 19.05 ЮВ 5 25 км 9/1 900 м
[Cu hum Ac lent]
+20.2 +12.7 62 +22 +24 комфорт 1005.4 989.9
13 19.05 В 5 30 км 9/3 930 м
[Cu med, cong Ac lent]
+20.1 +13.1 64 +22 +24 комфорт 1005.2 989.7
14 19.05 В 5 30 км 9/3 930 м
[Cu med, cong Ac lent]
+20.4 +13.4 64 +23 +24 комфорт 1004.9 989.5
15 19.05 В 2 15 км в посл. час ливневой дождь 9/5 600 м
[Cb cap Ac lent]
+17.3 +14.4 83 +18 +19 по сезону 1005.0 989.4
16 19.05 25 км 9/1 750 м
[Cu med, cong Ac lent Cs]
+17.8 +14.5 81 1004.5 988.9
17 19.05 СВ 1 25 км 9/4 750 м
[Sc diur, vesp Ac As Cs]
+17.7 +15.0 84 +19 +19 тепло 1004.4 988.8
18 19.05 СВ 2 25 км {ливн. осадки} 10/3 800 м
[Sc diur, vesp Ac As]
+17.3 +15.1 87 +18 +18 по сезону 1004.1 988.5 +20.7 4
19 19.05 20 км осадки на расстоянии 10/4 660 м
[Cu Sc Ac As]
+16.7 +14.7 88 1003.8 988.2
20 19.05 штиль 0 20 км 9/3 750 м
[Cu Sc Ac As]
+16.4 +11.4 72 +16 +16 тепло 1003.4 987.8
21 19.05 С 2 20 км 9/0
[Ac As]
+14.8 +13.0 89 +14 +14 по сезону 1003.5 987.8
22 19.05 С 1 20 км 9/0
[Ac As Cs]
+14.8 +12.8 88 +15 +15 тепло 1003.6 987.9
23 19.05 С 1 12 км 10/1 1500 м
[Sc Cs]
+14.0 +12.6 91 +14 +14 тепло 1003.5 987.7
00 20.05 СЗ 3 10 км 10/1 1080 м
[Sc Ac As]
+13.9 +12.8 93 +13 +13 по сезону 1003.2 987.4
01 20.05 СВ 3 8000 м слаб. дождь 10/4 1200 м
[Sc As op]
+13.7 +12.9 95 +12 +12 по сезону 1003.1 987.3
02 20.05 ЮВ 6 8000 м дождь 10/9 840 м
[Sc As op]
+13.7 +12.6 93 +11 +11 по сезону 1002.9 987.1
03 20.05 ЮВ 5 8000 м дождь 10/9 90 м
[Sc As op]
+13.2 +12.4 95 +11 +11 по сезону 1003.2 987.4
04 20.05 ЮВ 3 8000 м дождь 10/9 90 м
[Sc As op]
+12.9 +12.0 94 +11 +11 по сезону 1002.9 987.1
05 20.05 ЮВ 2 7000 м слаб. дождь 10/9 150 м
[Sc As op]
+13.0 +12.4 96 +12 +12 по сезону 1002.9 987.1
06 20.05 ЮВ 4 7000 м слаб. дождь 10/9 120 м
[Frnb As op]
+13.3 +12.5 95 +12 +12 прохладно 1003.5 987.7 +12.8 7
07 20.05 ЮВ 5 7000 м слаб. дождь 10/9 120 м
[Frnb As op]
+13.8 +13.0 95 +12 +12 холодно 1003.9 988.1
08 20.05 ЮВ 5 9000 м слаб. дождь 9/9 180 м
[Frnb Ac As]
+14.8 +13.5 92 +13 +14 холодно 1004.1 988.4
09 20.05 ЮВ 6 15 км в посл. час дождь 9/8 300 м
[Frnb Ac lent]
+16.6 +13.9 84 +15 +16 прохладно 1004.0 988.4
10 20.05 ЮВ 6 15 км в посл. час дождь 9/8 300 м
[Cu Sc Ac lent]
+17.3 +14.4 83 +16 +17 холодно 1003.9 988.3
11 20.05 ЮВ 6 25 км 9/8 660 м
[Cu Sc Ac lent Ci fib]
+19.0 +13.4 70 +20 +21 по сезону 1003.9 988.4
12 20.05 ЮВ 6 30 км {дождь} 9/6 840 м
[Cu Sc Ac lent Ci fib]
+18.9 +12.4 66 +19 +21 прохладно 1003.8 988.3 1
13 20.05 ЮВ 7 30 км гроза без осадков 8/5 600 м
[Cb cap Ac lent Ci sp]
+19.8 +14.0 69 +21 +23 комфорт 1003.6 988.2
14 20.05 ЮВ 6 30 км в посл. час гроза 9/8 900 м
[Cu Sc Ac lent Ci fib]
+19.9 +13.8 68 +22 +22 комфорт 1003.3 987.9
15 20.05 Ю 7 30 км {гроза} 8/6 960 м
[Cu Sc Ac lent Ci sp]
+20.2 +12.5 61 +22 +22 комфорт 1003.2 987.8
16 20.05 Ю 5 30 км 6/5 960 м
[Cu Sc Ac cuf Ci sp]
+18.9 +11.7 63 +19 +20 тепло 1003.2 987.7
17 20.05 ЮВ 4 40 км {ливн. осадки} 4/3 1050 м
[Cu Sc Ac cuf Ci fib]
+18.0 +12.0 68 +18 +18 по сезону 1003.2 987.6
18 20.05 ЮВ 3 40 км {гроза, ливн. осадки} 4/1 1200 м
[Cb cap Ac cuf Ci ing]
+16.7 +12.5 76 +16 +17 по сезону 1003.4 987.8 +20.8 1
19 20.05 ЮВ 3 40 км 3/1 1200 м
[Cu Sc Ac lent Ci fib]
+14.6 +11.0 79 +14 +14 по сезону 1003.8 988.1
20 20.05 ЮВ 3 40 км 1/1 1500 м
[Sc Ac lent]
+13.4 +10.6 83 +12 +12 прохладно 1004.5 988.7
21 20.05 ЮВ 3 40 км ясно +13.2 +9.6 79 +12 +12 прохладно 1004.5 988.7
22 20.05 40 км 1/0
[Ac lent]
+11.7 +9.3 85 1004.8 988.9
23 20.05 В 2 40 км 3/0
[Ci fib]
+10.4 +8.5 88 +9 +9 по сезону 1004.8 988.8
00 21.05 В 2 40 км 3/0
[Ci fib]
+9.5 +8.1 91 +8 +8 прохладно 1004.7 988.6
01 21.05 СВ 3 40 км 3/0
[Ac lent Ci fib]
+8.7 +7.6 93 +6 +6 прохладно 1004.7 988.6
02 21.05 СВ 3 40 км 3/0
[Ci fib]
+8.3 +7.4 94 +5 +5 холодно 1004.6 988.5
03 21.05 С 1 40 км 3/0
[Ac lent Ci fib]
+8.1 +7.3 95 +7 +7 холодно 1004.5 988.4
04 21.05 С 3 40 км 3/0
[Ac lent Ci fib]
+8.3 +7.7 96 +5 +6 очень
холодно
1004.8 988.7
05 21.05 СВ 2 30 км 4/1 300 м
[St Ac lent Ci fib]
+10.9 +9.5 91 +10 +11 прохладно 1005.2 989.2
06 21.05 нст 1 30 км 4/3 420 м
[Cu hum Ac lent Ci fib]
+12.6 +9.6 82 +13 +16 по сезону 1005.2 989.3 +7.7
07 21.05 30 км 8/5 360 м
[Cu Sc Ac lent Ci fib]
+13.9 +10.1 78 1005.3 989.5
08 21.05 30 км 8/6 450 м
[Cu Sc Ac lent Ci fib]
+15.2 +10.8 75 1005.8 990.1
09 21.05 нст 1 30 км 8/5 500 м
[Cu Sc Ac As Ci fib]
+16.1 +11.5 74 +17 +23 по сезону 1005.9 990.2
10 21.05 30 км 8/5 630 м
[Cu med, cong Ac lent Cs]
+17.4 +12.3 72 1006.0 990.4

 

Местоположение метеостанции Братислава (Словакия): широта 48.20 долгота 17.20 высота над уровнем моря 134 м.

В архиве по умолчанию представлена погода в Братиславе за последнюю неделю. Архивные данные за месяц целиком и за предыдущие месяцы, начиная с января 2011 года, Вы можете получить, выбрав интересующий диапазон дат из раскрывающегося списка и нажав кнопку "Ввод!".


*Определитесь, кто Вы:
робот инопланетянин человек

Внимание! Время в таблицах - всемирное. Для получения местного времени необходимо прибавить поправку, которая равна 1 ч.

Смотрите также архив погоды в соседних городах и на ближайших метеорологических станциях:

Погода в Малом Яровнику (Словакия) (7 км)
Погода в Братислава-Колибе (Словакия) (7 км)
Погода в Малацки (Словакия) (23 км)
Погода в Зверндорф-Маршег (Австрия) (31 км)
Погода в Мошонмадьяроваре (Венгрия) (36 км)
Погода в Нойзидль-ам-Зе (Австрия) (38 км)
Погода в Нойзидль-ам-Зе (Австрия) (39 км)
Погода в Ясловске Богунице (Словакия) (47 км)
Погода в Грос-Энцерсдорфе (Австрия) (47 км)
Погода в Вене аэропорт (Австрия) (48 км)

Пояснения к столбцам:

Ветер - указаны скорость ветра в м/с - средняя за 10 мин, порывы в срок и между сроками (в фигурных скобках) и направление, откуда дует ветер: С - северный, СВ - северо-восточный, В - восточный, ЮВ - юго-восточный, Ю - южный, ЮЗ - юго-западный, З - западный, СЗ - северо-западный.
Видимость - горизонтальная дальность видимости в метрах или километрах. При видимости от 1 до 10 км при отсутствии осадков обычно наблюдается дымка, при ухудшении видимости до 1 км и менее - туман. В сухую погоду видимость может ухудшаться дымом, пылью или мглою.
Явления - указаны атмосферные явления, наблюдавшиеся в срок или в последний час перед сроком; фигурными скобками обозначены явления, наблюдавшиеся между сроками (за 1-3 часа до срока); квадратными скобками обозначены град или гололедные отложения с указанием их диаметра в мм.
Облачность - указаны через наклонную черту общая и нижняя облачность в баллах и высота нижней границы облаков в метрах; квадратными скобками обозначены формы облаков: Ci - перистые, Cs - перисто-слоистые, Cc - перисто-кучевые, Ac - высококучевые, As - высокослоистые, Sc - слоисто-кучевые, Ns - слоисто-дождевые, Cu - кучевые, Cb - кучево-дождевые. Подробнее классификацию облаков см. в Атласе облаков (PDF).
T - Температура воздуха - температура, измеренная на высоте 2 м над землей.
Td - Температура точки росы - температура, при понижении до которой содержащийся в воздухе водяной пар достигнет насыщения.
f - Относительная влажность воздуха - влажноcть воздуха, измеренная на высоте 2 м над землей.
Te - Эффективная температура - температура, которую ощущает одетый по сезону человек в тени. Характеристика душности погоды. При расчете учитывается влияние влажности воздуха и скорости ветра на теплоощущения человека.
Tes - Эффективная температура на солнце - температура, которую ощущает человек, с поправкой на солнечный нагрев. Характеристика знойности погоды. Зависит от высоты солнца над горизонтом, облачности и скорости ветра. Ночью, в пасмурную погоду, а также при ветре 12 м/с и более поправка равна нулю.
P - Атмосферное давление - приведенное к уровню моря атмосферное давление.
Po - Атмосферное давление - измеренное на уровне метеостанции атмосферное давление.
Tmin - Минимальная температура - минимум температуры воздуха на высоте 2 м над землей.
Tmax - Максимальная температура - максимум температуры воздуха на высоте 2 м над землей.
R - Количество осадков - Количество выпавших осадков за период времени, мм. При наведении курсора мыши на число - период времени, за который выпало указанное количество осадков.
R24 - Количество осадков - Количество выпавших осадков за 24 часа, мм.
S - Снежный покров - Высота снежного покрова, см. При наведении курсора мыши на число - состояние снежного покрова и степень покрытия местности в баллах.